This demonstration page uses our WeatherBlox Daily Observations layout. Learn more.

Left ArrowRight Arrow

39.92423, -83.80882

Hourly Observations for January 24, 2018

Temp ( °F °C ) Dew Point ( °F °C ) Humidity (%) Winds ( mph kmh ) Pressure ( in mb ) Visibility ( mi km ) Precip ( " mm )
12:28 am 00:28 Cloudy with Light Snow 30 -1 27 -3 86 86 WNW 17 28 30.15 1021 9 14.48406 0 0.0254
12:38 am 00:38 Cloudy with Light Snow 30 -1 27 -3 86 86 WNW 14 22 30.15 1021 9 14.48406 0 0.0254
12:56 am 00:56 Cloudy with Light Snow 30 -1.1 27 -2.8 88 88 WNW 15 24 30.12 1020 9 14.48406 0 0.0254
1:56 am 01:56 Cloudy 30 -1.1 26 -3.3 85 85 WNW 14 22 30.14 1021 10 16.0934 0 0.0254
2:15 am 02:15 Cloudy with Light Snow 30 -1 27 -3 86 86 WNW 16 26 30.18 1022 9 14.48406 0 0.0254
2:56 am 02:56 Cloudy 30 -1.1 27 -2.8 88 88 WNW 12 19 30.16 1021 10 16.0934 0 0.0254
3:56 am 03:56 Cloudy 30 -1.1 27 -2.8 88 88 WNW 7 11 30.18 1022 10 16.0934 0 0
4:32 am 04:32 Cloudy 30 -1 27 -3 86 86 WNW 16 26 30.21 1023 10 16.0934 0 0
4:56 am 04:56 Cloudy 30 -1.1 26 -3.3 85 85 WNW 14 22 30.19 1022 10 16.0934 0 0
5:56 am 05:56 Cloudy 30 -1.1 25 -3.9 82 82 WNW 12 19 30.21 1023 10 16.0934 0 0.0254
6:56 am 06:56 Cloudy with Light Snow 30 -1.1 25 -3.9 82 82 NW 7 11 30.21 1023 9 14.48406 0 0.0254
7:56 am 07:56 Cloudy 30 -1.1 25 -3.9 82 82 WNW 12 19 30.22 1023 10 16.0934 0 0.0254
8:56 am 08:56 Cloudy with Light Snow 30 -1.1 25 -3.9 82 82 WNW 8 13 30.24 1024 9 14.48406 0 0.0254
9:56 am 09:56 Cloudy with Light Snow 30 -1.1 26 -3.3 85 85 W 8 13 30.25 1024 9 14.48406 0 0.0254
10:56 am 10:56 Cloudy with Light Snow 30 -1.1 25 -3.9 82 82 W 9 15 30.26 1025 9 14.48406 0 0.0254
11:56 am 11:56 Cloudy with Light Snow 31 -0.6 27 -2.8 85 85 W 6 9 30.25 1024 9 14.48406 0 0.0254
12:45 pm 12:45 Cloudy with Light Snow 32 0 25 -4 75 75 W 6 9 30.24 1024 7 11.26538 0 0.0254
12:56 pm 12:56 Cloudy with Light Snow 32 0 26 -3.3 79 79 WSW 7 11 30.22 1023 9 14.48406 0 0.0254
1:36 pm 13:36 Cloudy 32 0 27 -3 80 80 W 8 13 30.24 1024 10 16.0934 0 0.0254
1:56 pm 13:56 Cloudy with Light Snow 31 -0.6 27 -2.8 85 85 W 12 19 30.21 1023 6 9.65604 0 0.0254
2:05 pm 14:05 Cloudy with Light Snow 30 -1 27 -3 86 86 W 12 19 30.24 1024 2.5 4.02335 0 0.0254
2:19 pm 14:19 Cloudy with Light Snow 30 -1 28 -2 93 93 W 9 15 30.24 1024 3 4.82802 0 0.0254
2:21 pm 14:21 Cloudy with Light Snow 30 -1 28 -2 93 93 W 10 17 30.24 1024 2.5 4.02335 0 0.0254
2:28 pm 14:28 Cloudy with Light Snow 30 -1 28 -2 93 93 W 9 15 30.24 1024 2 3.21868 0 0.0254
2:32 pm 14:32 Cloudy with Light Snow 30 -1 28 -2 93 93 W 12 19 30.24 1024 1.5 2.41401 0 0.0254
2:42 pm 14:42 Cloudy with Light Snow 30 -1 28 -2 93 93 WNW 9 15 30.24 1024 3 4.82802 0 0.0254
2:51 pm 14:51 Cloudy with Light Snow 30 -1 28 -2 93 93 WNW 10 17 30.24 1024 9 14.48406 0 0.0254
2:56 pm 14:56 Cloudy with Light Snow 32 0 29 -1.7 88 88 W 10 17 30.22 1023 9 14.48406 0 0.0254
3:13 pm 15:13 Cloudy 32 0 27 -3 80 80 WNW 14 22 30.24 1024 10 16.0934 0 0.0254
3:21 pm 15:21 Cloudy with Light Snow 30 -1 27 -3 86 86 WNW 13 20 30.24 1024 9 14.48406 0 0.0254
3:56 pm 15:56 Cloudy with Light Snow 31 -0.6 27 -2.8 85 85 W 13 20 30.25 1024 9 14.48406 0 0.0254
4:48 pm 16:48 Cloudy with Light Snow 30 -1 27 -3 86 86 WNW 12 19 30.3 1026 5 8.0467 0 0.0254
4:56 pm 16:56 Cloudy with Light Snow 30 -1.1 26 -3.3 85 85 WNW 14 22 30.28 1025 8 12.87472 0 0.0254
5:34 pm 17:34 Cloudy with Light Snow 30 -1 27 -3 86 86 W 17 28 30.3 1026 9 14.48406 0 0.0254
5:56 pm 17:56 Cloudy with Light Snow 29 -1.7 25 -3.9 85 85 WNW 16 26 30.3 1026 9 14.48406 0 0.0254
6:56 pm 18:56 Cloudy with Light Snow 29 -1.7 24 -4.4 82 82 WNW 10 17 30.32 1027 9 14.48406 0 0.0254
7:56 pm 19:56 Cloudy with Light Snow 28 -2.2 24 -4.4 85 85 W 10 17 30.34 1027 9 14.48406 0 0.0254
8:22 pm 20:22 Cloudy with Light Snow 28 -2 25 -4 86 86 W 10 17 30.39 1029 9 14.48406 0 0.0254
8:56 pm 20:56 Cloudy 29 -1.7 25 -3.9 85 85 WNW 14 22 30.36 1028 10 16.0934 0 0.0254
9:56 pm 21:56 Cloudy 28 -2.2 24 -4.4 85 85 WNW 9 15 30.37 1028 10 16.0934 0 0.0254
10:56 pm 22:56 Cloudy 28 -2.2 24 -4.4 85 85 W 12 19 30.38 1029 10 16.0934 0 0.0254
11:56 pm 23:56 Cloudy with Light Snow 27 -2.8 23 -5 85 85 W 10 17 30.4 1029 9 14.48406 0 0.0254

Powered by AerisWeather